Weather History for Martinsburg, WV

Change the Weather History Date:

Thursday, October 24, 2013

  Actual Average Record
Temperature  
Mean Temperature 42 °F 51 °F  
Max Temperature 49 °F 63 °F 85 °F (1927)
Min Temperature 35 °F 40 °F 17 °F (1969)
Degree Days  
Heating Degree Days 23 14  
Month to date heating degree days 179 250  
Since 1 July heating degree days 279 341  
Cooling Degree Days 0 0  
Month to date cooling degree days 40 8  
Year to date cooling degree days 1057 893  
Moisture  
Dew Point 30 °F    
Average Humidity 62    
Maximum Humidity 79    
Minimum Humidity 45    
Precipitation  
Precipitation 0.01 in 0.09 in 1.28 in (1971)
Month to date precipitation 5.39 2.36  
Year to date precipitation 29.01 32.17  
Sea Level Pressure  
Sea Level Pressure 30.05 in    
Wind  
Wind Speed 8 mph (WSW)    
Max Wind Speed 22 mph    
Max Gust Speed 31 mph    
Visibility 10 miles    
Events Rain    
T = Trace of Precipitation, MM = Missing Value Source: NWS Daily Summary

Daily Weather History Graph

Daily Weather History Graph

Search for Another Location

Airport:

Trip Planner

Search our weather history database for the weather conditions in past years. The results will help you decide how hot, cold, wet, or windy it might be!

Date:

Astronomy

Oct. 24, 2013 Rise Set
Actual Time 7:31 AM EDT 6:20 PM EDT
Civil Twilight 7:04 AM EDT 6:47 PM EDT
Nautical Twilight 6:32 AM EDT 7:18 PM EDT
Astronomical Twilight 6:01 AM EDT 7:49 PM EDT
Moon 10:43 PM EDT (10/24) 12:30 PM EDT (10/24)
Length of Visible Light 11h 43m
Length of Day
10h 48m
Waning Gibbous, 71% of the Moon is Illuminated
Oct 24
Waning Gibbous
Oct 26
Last Quarter
Nov 3
New
Nov 10
First Quarter
Nov 17
Full

Hourly Weather History & Observations

Time (EDT) Temp. Windchill Dew Point Humidity Pressure Visibility Wind Dir Wind Speed Gust Speed Precip Events Conditions
12:53 AM 42.1 °F 37.7 °F 30.0 °F 62% 29.94 in 10.0 mi WNW 6.9 mph - N/A   Partly Cloudy
1:53 AM 39.9 °F 36.7 °F 30.0 °F 68% 29.95 in 10.0 mi WSW 4.6 mph - N/A   Mostly Cloudy
2:53 AM 37.9 °F 33.5 °F 30.9 °F 76% 29.96 in 10.0 mi South 5.8 mph - N/A   Scattered Clouds
3:53 AM 37.9 °F 34.4 °F 30.9 °F 76% 29.96 in 10.0 mi WSW 4.6 mph - N/A   Overcast
4:53 AM 37.9 °F 33.5 °F 30.9 °F 76% 29.97 in 10.0 mi SW 5.8 mph - N/A   Overcast
5:53 AM 39.9 °F 34.5 °F 33.1 °F 77% 29.99 in 10.0 mi WSW 8.1 mph - N/A   Overcast
6:40 AM 39.2 °F 35.0 °F 33.8 °F 81% 30.00 in 6.0 mi SW 5.8 mph 16.1 mph 0.01 in Rain Light Rain
6:53 AM 39.0 °F 34.8 °F 34.0 °F 82% 30.01 in 10.0 mi SW 5.8 mph - 0.01 in Rain Light Rain
7:53 AM 37.0 °F 34.5 °F 32.0 °F 82% 30.03 in 10.0 mi SW 3.5 mph - 0.00 in   Partly Cloudy
8:53 AM 39.9 °F - 34.0 °F 79% 30.05 in 10.0 mi Calm Calm - N/A   Overcast
9:53 AM 41.0 °F 34.7 °F 32.0 °F 70% 30.06 in 10.0 mi WSW 10.4 mph - N/A   Overcast
10:53 AM 43.0 °F 36.4 °F 32.0 °F 65% 30.06 in 10.0 mi WSW 12.7 mph - N/A   Overcast
11:53 AM 42.1 °F 35.7 °F 30.9 °F 65% 30.06 in 10.0 mi NW 11.5 mph - 0.00 in   Overcast
12:53 PM 44.1 °F 40.1 °F 33.1 °F 65% 30.05 in 10.0 mi WNW 6.9 mph - 0.00 in   Overcast
1:53 PM 43.0 °F 37.2 °F 28.9 °F 58% 30.05 in 10.0 mi West 10.4 mph - 0.00 in   Overcast
2:53 PM 48.9 °F - 28.0 °F 44% 30.04 in 10.0 mi West 11.5 mph 18.4 mph N/A   Overcast
3:53 PM 46.9 °F - 26.1 °F 44% 30.06 in 10.0 mi West 19.6 mph - N/A   Scattered Clouds
4:53 PM 46.0 °F 41.0 °F 26.1 °F 46% 30.06 in 10.0 mi West 10.4 mph - N/A   Scattered Clouds
5:53 PM 42.1 °F 37.1 °F 28.0 °F 58% 30.07 in 10.0 mi WSW 8.1 mph - N/A   Clear
6:53 PM 41.0 °F 35.8 °F 28.9 °F 62% 30.10 in 10.0 mi West 8.1 mph - N/A   Overcast
7:53 PM 42.1 °F 36.6 °F 27.0 °F 55% 30.11 in 10.0 mi West 9.2 mph - N/A   Clear
8:53 PM 41.0 °F 34.3 °F 28.0 °F 60% 30.12 in 10.0 mi West 11.5 mph - N/A   Mostly Cloudy
9:53 PM 39.0 °F 34.8 °F 28.9 °F 67% 30.14 in 10.0 mi WSW 5.8 mph - N/A   Clear
10:53 PM 37.9 °F 31.5 °F 28.9 °F 70% 30.15 in 10.0 mi WSW 9.2 mph - N/A   Clear
11:53 PM 37.9 °F 32.7 °F 28.0 °F 68% 30.16 in 10.0 mi SW 6.9 mph - N/A   Clear